Temp
63 63 64 63 63 64 64 63 63 63 63 64 64 64 64 64 64 61 62 67 67 72 69 67 65 64 63 60 59 53 48 44 47 48 52 55 54 56 54 56 50 52 52 54 59
63 63 63 63 63 63 63 63 63 63 63 63 64 64 63 63 60 61 69 72 72 71 66 63 60 62 58 57 56 51 45 50 53 52 51 55 54 58 55 52 49 49 52 54 57
62 62 62 63 63 63 63 63 63 63 63 63 63 63 63 60 59 62 71 72 71 70 65 64 63 61 55 55 52 50 49 52 53 54 55 56 53 55 54 50 54 54 54 54 53
62 62 62 62 62 63 63 63 63 63 63 63 63 63 62 59 50 63 70 71 71 66 65 63 61 55 51 50 55 49 53 55 56 56 56 55 55 53 54 55 54 56 54 52 52
61 61 61 61 61 62 62 63 63 62 62 63 63 63 60 56 61 65 68 68 65 65 63 61 58 55 51 52 53 50 51 55 55 56 54 55 55 55 54 49 50 53 53 52 50
60 60 60 60 61 61 62 62 62 62 62 63 63 63 56 52 65 66 65 64 65 63 61 62 59 59 55 52 51 52 52 54 55 55 54 54 52 53 51 49 50 51 51 50 50
60 60 60 60 60 61 61 62 62 62 62 63 64 61 55 60 64 64 65 63 63 63 61 61 61 58 55 51 54 53 50 53 53 53 53 54 51 51 52 49 49 49 48 49 49
60 59 59 60 60 61 61 61 61 61 62 63 63 56 55 63 62 64 64 63 64 65 63 62 63 60 56 55 54 47 45 42 50 51 52 54 46 53 49 48 48 47 45 47 48
59 59 59 59 59 60 60 61 60 61 62 63 56 52 54 64 61 65 63 63 62 63 63 68 61 53 54 48 44 43 38 39 47 51 49 48 47 49 46 47 47 45 45 46 46
59 59 59 59 59 60 60 61 61 60 61 62 62 51 56 57 60 62 62 64 60 59 58 57 50 46 45 45 38 38 37 40 42 47 46 45 47 50 47 46 48 46 44 44 46
59 59 59 59 60 60 58 54 51 50 51 53 53 54 56 58 62 59 62 61 58 55 48 49 45 41 48 48 46 44 40 41 44 49 46 46 47 53 50 45 44 45 44 46 48
59 59 59 59 60 60 56 50 54 54 48 55 54 55 59 59 54 56 62 55 52 47 48 44 40 50 51 48 46 44 41 41 45 48 47 46 45 48 48 47 50 52 50 50 48
59 59 59 59 60 58 53 54 60 56 47 52 54 54 56 58 55 54 59 53 48 44 46 44 49 51 50 45 44 41 40 40 43 44 43 41 42 43 48 50 52 52 57 56 51
58 59 59 59 55 57 54 59 60 58 42 47 50 54 55 57 50 58 60 55 48 46 45 44 49 48 45 43 46 39 46 45 43 39 34 40 36 42 46 47 47 54 56 52 46
56 57 59 59 56 54 59 60 60 57 30 50 48 59 55 55 52 50 56 53 46 47 48 44 43 44 42 44 48 43 45 43 40 36 33 32 32 38 43 43 49 57 54 47 46
56 56 56 57 56 57 60 60 57 40 31 42 47 46 47 49 48 50 52 55 52 47 44 44 45 47 47 46 48 47 43 40 36 35 30 36 37 47 41 45 49 55 51 46 44
54 54 54 56 53 57 58 54 39 33 47 40 40 44 43 42 43 45 44 45 43 37 36 41 43 44 46 43 43 44 40 30 27 25 29 31 33 47 48 50 50 51 49 45 42
54 54 54 55 56 57 54 45 31 39 41 43 42 42 40 43 41 41 39 37 42 40 34 34 33 42 46 47 43 39 40 30 22 23 28 32 29 38 45 48 47 46 45 42 39
55 52 52 54 55 55 49 38 35 39 45 41 41 36 36 41 40 38 36 35 42 42 39 33 34 40 42 43 49 38 35 43 33 18 21 31 36 43 43 44 48 41 39 39 37
47 47 48 55 55 51 44 34 39 45 48 46 39 40 35 37 37 36 35 40 41 45 47 41 34 37 39 44 42 42 44 34 31 20 19 29 30 37 43 47 45 42 40 38 37
45 41 50 55 53 45 36 36 42 47 49 44 44 42 42 40 41 36 38 41 44 42 50 43 39 33 38 36 37 37 35 36 39 30 23 21 34 41 44 44 43 43 42 39 37
42 35 50 54 40 41 33 39 46 46 49 46 45 47 44 43 42 40 39 42 47 46 40 45 37 26 34 38 41 39 41 43 35 27 28 27 37 43 44 42 42 44 42 38 38
37 38 48 50 36 36 40 40 43 44 46 44 43 45 47 46 39 43 41 48 47 45 43 45 35 31 33 38 40 39 40 46 39 34 30 28 36 42 42 43 43 42 39 39 38
37 31 38 42 43 40 38 39 39 44 44 46 44 46 44 42 47 42 43 45 46 47 48 48 36 33 35 35 36 33 38 41 43 33 31 36 41 43 41 44 46 42 38 38 37
36 33 37 30 35 38 40 40 38 38 44 45 42 42 43 38 40 40 43 42 43 46 46 46 34 35 38 38 37 34 37 40 40 41 35 41 39 47 50 48 50 46 40 38 37
32 32 36 33 38 37 38 37 36 40 42 39 38 42 43 39 42 38 43 42 42 40 43 43 35 36 36 39 37 35 36 38 41 43 42 43 41 53 49 48 42 46 42 39 39
40 37 36 33 31 31 33 36 37 40 40 41 43 40 39 42 47 48 47 45 43 41 38 36 36 34 33 39 36 31 36 39 39 43 43 37 44 51 46 46 47 45 42 41 41
MSLP
1018.54 1018.71 1018.66 1018.45 1018.30 1018.33 1018.23 1018.09 1018.01 1017.89 1017.72 1017.51 1017.27 1017.02 1016.68 1016.34 1015.80 1015.85 1015.58 1015.16 1014.94 1014.77 1014.71 1014.58 1014.31 1014.30 1014.44 1015.14 1015.71 1016.41 1017.50 1018.19 1017.73 1017.54 1016.43 1016.13 1016.38 1016.66 1017.19 1017.96 1018.82 1019.13 1019.31 1019.30 1019.36
1018.46 1018.61 1018.71 1018.65 1018.47 1018.34 1018.29 1018.11 1017.96 1017.85 1017.68 1017.45 1017.13 1016.93 1016.66 1016.36 1016.18 1015.68 1015.09 1014.93 1014.88 1014.79 1014.69 1014.74 1014.64 1014.55 1015.12 1015.47 1016.05 1016.65 1017.64 1017.36 1016.74 1016.59 1016.30 1016.22 1016.44 1016.80 1017.40 1018.25 1018.99 1019.30 1019.48 1019.63 1019.75
1018.38 1018.45 1018.61 1018.61 1018.57 1018.51 1018.43 1018.33 1018.12 1017.87 1017.63 1017.25 1016.96 1016.76 1016.49 1016.39 1016.12 1015.23 1014.86 1014.83 1014.89 1014.90 1014.86 1014.77 1014.77 1014.80 1015.37 1015.67 1016.11 1016.54 1016.83 1016.67 1016.44 1016.35 1016.33 1016.40 1016.61 1016.85 1017.44 1018.47 1018.38 1018.69 1019.41 1019.85 1020.11
1018.24 1018.33 1018.38 1018.48 1018.48 1018.44 1018.45 1018.33 1018.16 1017.89 1017.61 1017.32 1016.99 1016.64 1016.33 1016.33 1015.92 1014.91 1014.80 1014.91 1014.95 1014.89 1014.82 1014.78 1014.88 1015.24 1015.78 1016.00 1016.04 1016.34 1016.32 1016.37 1016.33 1016.31 1016.45 1016.57 1016.63 1017.14 1017.66 1017.57 1017.84 1018.22 1018.97 1019.80 1020.32
1018.01 1018.19 1018.25 1018.27 1018.32 1018.38 1018.38 1018.37 1018.14 1018.00 1017.69 1017.37 1017.07 1016.63 1016.26 1016.08 1015.31 1014.77 1014.79 1014.93 1014.82 1014.82 1014.93 1014.97 1015.15 1015.46 1015.93 1016.17 1016.26 1016.41 1016.50 1016.44 1016.40 1016.43 1016.48 1016.68 1016.93 1017.34 1017.60 1017.89 1018.39 1018.86 1019.54 1020.09 1020.53
1017.81 1018.03 1018.17 1018.17 1018.26 1018.27 1018.34 1018.33 1018.23 1018.05 1017.81 1017.44 1017.13 1016.65 1016.47 1016.05 1014.78 1014.80 1014.84 1014.92 1014.94 1014.95 1015.13 1015.13 1015.34 1015.54 1015.96 1016.30 1016.58 1016.67 1016.70 1016.70 1016.61 1016.66 1016.79 1017.05 1017.26 1017.70 1017.61 1018.31 1019.05 1019.42 1019.76 1020.19 1020.52
1017.70 1017.82 1018.05 1018.08 1018.18 1018.18 1018.25 1018.26 1018.21 1017.99 1017.81 1017.54 1017.22 1017.11 1016.58 1015.52 1014.94 1014.97 1014.90 1015.02 1015.12 1015.08 1015.29 1015.43 1015.49 1015.73 1016.23 1016.66 1016.86 1017.02 1017.39 1017.31 1016.86 1016.86 1017.11 1017.33 1017.73 1017.41 1017.66 1018.66 1019.45 1019.94 1020.14 1020.42 1020.51
1017.38 1017.59 1017.82 1018.01 1018.07 1018.14 1018.14 1018.11 1018.09 1017.94 1017.74 1017.54 1017.34 1017.29 1016.18 1015.03 1014.98 1015.11 1015.05 1015.13 1015.16 1015.19 1015.39 1015.57 1015.55 1016.07 1016.60 1017.04 1017.58 1017.86 1018.22 1018.34 1017.30 1017.33 1017.27 1017.65 1017.24 1016.99 1017.64 1018.72 1019.56 1019.99 1020.38 1020.44 1020.40
1017.08 1017.24 1017.56 1017.79 1017.93 1018.04 1018.10 1018.06 1018.01 1017.90 1017.65 1017.48 1017.50 1017.29 1016.08 1015.17 1015.15 1014.95 1015.00 1015.30 1015.44 1015.66 1015.76 1015.84 1016.10 1017.19 1017.44 1018.03 1018.78 1019.01 1018.99 1018.93 1018.10 1017.52 1017.71 1018.10 1017.75 1017.37 1018.15 1018.94 1019.42 1019.77 1020.07 1020.21 1020.37
1016.54 1016.88 1017.24 1017.49 1017.71 1017.95 1018.06 1018.10 1017.93 1017.83 1017.55 1017.49 1017.45 1017.64 1015.87 1015.14 1014.97 1015.07 1015.14 1015.39 1015.75 1016.10 1016.44 1016.79 1017.60 1018.25 1018.75 1018.86 1019.18 1019.18 1019.42 1018.99 1018.60 1017.99 1018.11 1018.32 1017.75 1017.51 1018.07 1018.80 1018.86 1019.21 1019.46 1019.82 1019.93
1015.99 1016.53 1016.82 1017.11 1017.43 1017.74 1018.20 1018.18 1018.53 1018.22 1017.71 1016.48 1016.23 1015.83 1015.24 1015.21 1015.08 1015.26 1015.31 1015.67 1016.10 1016.59 1017.24 1017.64 1018.35 1018.51 1018.13 1018.27 1018.42 1018.82 1019.13 1019.05 1018.34 1017.87 1018.19 1017.93 1017.62 1016.98 1017.26 1017.99 1018.20 1018.30 1018.45 1018.41 1018.38
1015.58 1015.97 1016.39 1016.75 1017.01 1017.50 1018.05 1017.87 1016.92 1016.77 1016.61 1015.80 1015.90 1015.78 1015.20 1015.07 1015.38 1015.50 1015.46 1015.93 1016.52 1017.16 1017.75 1018.45 1018.13 1017.47 1017.94 1018.43 1018.82 1018.97 1019.18 1019.11 1018.37 1018.01 1018.35 1017.61 1016.96 1016.56 1016.65 1016.56 1016.20 1016.13 1016.38 1016.48 1017.37
1014.93 1015.43 1015.88 1016.49 1016.82 1017.20 1017.29 1016.90 1016.41 1016.37 1016.61 1015.39 1014.96 1014.90 1014.76 1015.08 1014.95 1015.14 1015.55 1016.05 1016.55 1017.36 1017.72 1017.68 1017.03 1016.94 1017.87 1018.52 1019.03 1019.09 1019.19 1019.11 1018.88 1018.38 1018.24 1017.77 1015.89 1015.54 1014.85 1014.93 1014.45 1014.28 1013.76 1014.51 1015.35
1014.46 1014.57 1015.34 1015.96 1016.84 1016.12 1016.48 1016.10 1016.33 1016.50 1016.69 1014.89 1014.42 1013.32 1013.86 1014.46 1014.94 1014.55 1014.78 1015.37 1016.50 1016.76 1017.71 1017.76 1017.03 1017.27 1017.71 1018.07 1018.39 1018.80 1018.36 1018.80 1019.14 1019.63 1019.22 1018.32 1014.87 1014.32 1014.17 1013.86 1013.63 1012.74 1012.53 1013.57 1014.78
1014.25 1014.26 1014.61 1015.20 1015.00 1015.00 1014.84 1015.55 1016.14 1016.55 1016.33 1012.95 1013.27 1012.93 1013.18 1013.79 1014.03 1014.81 1014.85 1015.02 1015.65 1016.44 1017.20 1016.48 1016.86 1017.18 1017.40 1017.27 1017.90 1018.06 1018.27 1018.91 1019.31 1019.88 1019.75 1018.94 1018.24 1012.99 1013.15 1013.31 1012.51 1011.22 1011.74 1012.77 1013.76
1014.07 1013.98 1014.84 1014.46 1014.28 1014.41 1014.32 1015.24 1016.30 1016.92 1014.30 1013.03 1012.88 1013.14 1013.73 1014.10 1014.58 1014.95 1015.05 1015.14 1015.45 1016.22 1016.58 1016.54 1016.38 1016.44 1016.40 1016.95 1017.28 1017.85 1018.62 1019.56 1020.28 1020.59 1019.66 1018.53 1018.14 1008.62 1012.57 1011.92 1011.43 1010.82 1011.49 1012.44 1013.49
1014.61 1014.40 1014.32 1014.36 1014.10 1013.98 1013.86 1014.91 1015.25 1013.69 1012.18 1012.69 1012.83 1013.14 1013.63 1014.30 1014.97 1015.02 1015.34 1015.43 1015.42 1016.61 1016.51 1016.81 1016.36 1016.29 1016.36 1017.09 1017.81 1017.90 1019.09 1020.49 1021.11 1021.47 1019.23 1018.32 1017.72 1011.56 1011.86 1011.22 1011.05 1011.13 1011.55 1012.34 1013.54
1014.98 1014.59 1013.69 1014.29 1014.33 1013.84 1014.26 1013.46 1012.69 1012.25 1012.42 1012.37 1012.57 1013.32 1013.91 1014.27 1014.93 1015.06 1015.53 1015.88 1015.66 1015.57 1016.46 1016.48 1016.45 1015.92 1015.83 1015.68 1016.60 1017.66 1018.14 1019.61 1020.65 1021.47 1019.98 1018.84 1015.99 1012.02 1011.12 1010.59 1010.29 1010.95 1011.71 1012.59 1013.80
1014.63 1014.71 1013.91 1013.56 1014.25 1014.16 1013.35 1012.57 1012.19 1012.33 1012.15 1012.08 1013.04 1013.54 1014.03 1014.11 1014.46 1015.10 1015.43 1015.27 1014.80 1014.90 1015.24 1015.58 1015.58 1015.29 1015.44 1015.36 1015.81 1017.55 1017.98 1018.16 1019.82 1021.58 1020.90 1017.56 1014.58 1012.14 1011.04 1011.03 1010.22 1011.16 1012.19 1013.25 1014.00
1015.10 1015.13 1013.80 1013.22 1013.97 1013.79 1013.27 1012.85 1012.53 1011.96 1011.63 1011.82 1011.84 1012.35 1013.05 1013.75 1014.51 1014.87 1015.12 1013.83 1013.87 1013.85 1013.53 1014.25 1015.34 1015.54 1015.67 1015.65 1016.16 1016.06 1016.82 1018.39 1019.41 1020.69 1020.00 1016.71 1015.06 1012.86 1011.39 1010.47 1010.41 1011.30 1012.17 1013.08 1014.11
1015.45 1015.02 1013.21 1012.93 1014.34 1013.96 1013.14 1012.87 1012.45 1011.65 1011.66 1011.98 1011.47 1011.70 1012.18 1012.76 1013.22 1013.69 1013.62 1013.10 1012.88 1013.16 1013.34 1013.98 1014.95 1016.26 1016.15 1015.71 1015.60 1016.42 1016.54 1017.25 1017.89 1018.93 1018.79 1017.27 1012.86 1011.10 1010.70 1010.64 1010.90 1011.03 1011.65 1013.04 1013.91
1015.53 1015.01 1013.26 1013.10 1014.42 1013.62 1013.48 1012.72 1012.00 1011.42 1011.38 1011.61 1011.30 1011.37 1011.50 1012.09 1012.30 1012.45 1012.43 1012.10 1011.87 1012.45 1013.54 1013.85 1014.80 1016.09 1015.83 1015.43 1015.25 1015.18 1015.12 1015.89 1017.09 1018.06 1017.87 1016.90 1010.34 1009.94 1010.17 1010.41 1010.68 1010.72 1011.42 1012.61 1014.02
1015.48 1014.77 1013.43 1013.50 1013.37 1012.98 1012.75 1012.26 1011.94 1011.48 1011.14 1011.35 1011.29 1011.11 1011.06 1010.92 1011.60 1011.55 1011.44 1011.10 1011.40 1011.98 1012.32 1013.27 1014.85 1015.82 1015.87 1015.94 1015.61 1015.03 1014.91 1014.52 1015.32 1016.39 1015.88 1016.04 1009.53 1009.82 1009.89 1010.03 1010.28 1010.92 1011.61 1012.54 1013.69
1015.86 1015.20 1014.39 1013.76 1012.80 1012.31 1012.26 1012.05 1011.73 1011.39 1011.42 1010.86 1010.89 1010.78 1011.02 1010.97 1009.81 1010.58 1010.90 1011.00 1011.14 1011.18 1011.26 1012.12 1013.29 1013.33 1013.14 1013.01 1013.41 1014.38 1013.82 1013.77 1014.15 1014.99 1014.24 1012.12 1009.83 1009.23 1009.70 1009.94 1009.90 1010.53 1011.57 1012.55 1013.51
1015.76 1015.13 1014.14 1013.79 1013.09 1012.72 1012.59 1011.89 1011.63 1011.40 1011.08 1010.91 1010.67 1010.65 1010.44 1010.48 1010.39 1010.29 1010.53 1011.14 1011.44 1011.46 1011.43 1011.78 1012.53 1012.73 1012.19 1012.54 1012.88 1012.96 1012.78 1012.91 1012.95 1011.85 1012.91 1008.64 1010.51 1006.14 1008.78 1009.50 1009.27 1010.06 1011.04 1012.20 1013.18
1015.19 1015.02 1014.44 1014.12 1013.69 1013.09 1012.70 1011.63 1011.67 1011.11 1011.17 1010.86 1010.85 1010.53 1010.82 1010.01 1009.91 1009.83 1010.30 1010.69 1010.93 1011.78 1011.51 1011.31 1011.46 1012.01 1011.70 1012.00 1012.47 1012.67 1012.33 1011.35 1011.04 1011.00 1011.22 1009.03 1008.97 1005.08 1007.65 1008.40 1009.21 1009.58 1010.44 1011.47 1012.07
1014.41 1014.49 1014.50 1014.08 1013.82 1013.67 1012.67 1012.04 1011.54 1012.01 1011.40 1011.19 1010.99 1011.19 1010.89 1010.22 1010.23 1009.96 1009.98 1010.21 1010.42 1010.50 1011.27 1011.15 1010.93 1011.75 1010.55 1010.82 1011.85 1011.82 1008.05 1010.32 1010.39 1010.26 1009.67 1009.33 1005.76 1004.89 1007.61 1008.02 1008.37 1008.82 1009.64 1010.45 1011.00
Wind_Speed
3 2 1 1 2 1 2 2 3 5 6 8 10 11 11 12 11 0 3 1 1 5 4 4 2 3 4 4 4 3 6 3 6 7 5 3 3 1 2 7 2 1 4 3 9
3 2 2 1 1 1 2 3 4 5 7 9 11 12 12 11 2 2 1 3 5 4 3 3 2 3 4 2 3 6 4 8 5 5 4 4 3 7 5 4 0 1 1 2 6
3 3 2 3 4 4 4 5 6 7 9 10 12 12 11 4 1 2 3 3 2 4 2 1 2 2 3 3 2 3 5 4 3 2 3 4 2 3 7 4 8 10 11 6 5
5 4 4 3 4 5 7 6 7 8 10 11 12 13 13 2 3 0 2 3 3 3 1 2 3 3 3 1 1 2 1 3 2 2 4 5 2 3 6 6 3 7 8 6 8
6 6 5 5 5 5 7 8 8 9 10 11 13 13 2 2 6 1 2 2 2 2 3 2 3 2 3 1 1 1 1 1 1 4 3 3 5 7 7 2 3 8 8 9 8
8 7 7 6 6 6 7 8 9 9 10 12 13 14 0 3 1 3 2 2 2 3 2 4 3 2 3 2 2 1 1 3 4 4 3 4 4 4 4 6 6 8 10 9 9
9 8 8 7 7 7 7 7 8 8 10 12 11 4 1 10 2 3 2 2 1 2 3 1 1 3 2 2 0 1 3 6 5 3 5 5 8 12 5 8 9 9 8 8 10
10 9 9 9 8 7 7 7 7 8 9 9 9 2 7 1 2 2 1 3 3 4 3 2 2 4 3 2 6 3 5 3 4 5 3 6 12 5 7 12 12 10 8 9 10
11 10 10 9 9 7 7 6 7 8 8 8 3 1 8 1 2 4 3 5 4 3 5 3 5 3 4 5 5 6 3 4 9 7 3 4 9 2 4 7 9 10 11 10 8
12 12 11 10 9 8 6 4 6 7 2 1 1 2 2 5 3 3 1 6 4 4 4 5 6 4 3 4 6 6 4 4 6 3 3 5 14 9 4 9 12 9 9 9 11
13 13 12 11 9 7 1 1 2 2 2 9 6 3 2 1 2 1 3 4 3 5 6 1 4 8 14 8 4 4 4 5 4 3 4 9 11 18 9 7 10 11 11 16 19
14 14 13 13 10 7 4 3 5 0 5 10 4 5 3 3 4 3 6 6 4 5 6 4 8 14 4 5 5 3 3 7 7 5 6 11 15 12 8 10 13 18 18 20 12
17 16 15 13 10 7 4 6 3 1 2 6 7 7 6 7 6 12 11 5 5 7 10 9 6 6 9 5 6 6 7 6 8 5 5 7 11 10 9 11 13 15 21 17 19
8 18 16 14 8 7 6 7 3 1 3 7 7 9 7 8 5 5 8 7 4 11 7 7 4 6 6 6 9 6 8 6 5 1 6 2 17 7 8 13 8 21 19 15 11
8 8 22 22 6 9 6 8 5 3 6 4 4 1 4 11 9 2 2 2 9 8 8 9 8 7 5 7 8 8 5 6 1 3 4 2 6 0 4 7 14 21 15 10 14
11 7 5 13 2 2 7 12 4 5 15 4 6 8 7 3 2 4 4 2 4 5 3 4 0 7 9 3 7 8 6 5 4 1 7 11 9 24 7 9 7 11 6 9 11
10 10 4 4 2 5 5 10 7 10 2 7 7 7 4 7 5 6 8 11 10 8 9 3 5 3 4 6 3 3 7 2 5 1 10 3 6 18 9 9 9 11 8 8 8
8 9 2 3 4 5 7 5 7 6 8 3 5 5 8 7 4 6 8 8 6 3 4 9 5 12 8 10 9 8 9 8 8 5 6 2 11 9 9 11 10 8 7 3 7
7 3 1 3 7 3 5 13 6 6 3 8 4 5 4 4 6 4 8 7 9 10 10 7 7 2 2 2 10 6 7 4 4 2 2 7 9 9 9 13 18 4 3 7 8
2 3 3 5 6 3 8 2 6 5 3 2 9 7 12 8 7 7 10 7 7 15 4 5 1 1 2 4 3 7 7 3 1 2 7 6 7 10 8 13 9 6 8 7 7
1 3 3 10 4 3 5 7 7 6 3 4 6 7 6 9 10 8 8 3 7 7 17 5 4 1 4 6 11 4 4 3 5 6 5 4 9 9 6 5 9 9 7 8 9
1 3 2 6 4 2 4 5 6 5 6 6 1 9 12 8 8 9 12 6 9 9 11 5 5 4 8 3 3 1 8 8 5 6 5 2 20 4 7 4 6 9 5 5 6
2 3 3 4 6 9 4 7 3 4 9 8 12 7 3 14 8 12 7 7 11 11 12 10 4 3 2 1 3 7 8 15 6 3 10 6 14 3 2 6 6 8 2 6 7
2 2 3 3 3 7 7 9 9 6 13 2 4 6 5 12 9 6 8 6 10 9 12 9 7 9 10 6 6 8 12 14 16 11 6 24 22 15 5 7 8 5 2 6 8
3 4 3 3 9 10 9 3 14 10 9 7 5 10 13 11 11 14 12 3 0 8 9 11 11 11 13 4 4 3 12 21 23 26 16 27 23 33 19 13 13 7 6 7 8
4 3 2 3 6 6 12 17 17 12 10 8 15 16 17 11 14 8 12 9 10 4 11 7 5 8 17 14 8 6 9 21 27 26 24 28 24 24 8 6 5 11 8 9 11
2 2 3 4 2 4 4 11 15 5 4 10 12 16 17 20 19 21 8 4 2 6 9 7 6 7 24 13 10 9 35 17 15 22 22 24 36 30 10 11 13 13 8 9 12
Wind_Direction
176 199 190 132 108 70 64 40 3 352 342 334 332 333 335 333 324 168 256 293 297 336 321 298 11 21 40 70 58 118 66 162 182 156 242 177 136 136 77 109 53 338 158 279 135
187 215 261 279 314 330 333 348 346 339 334 331 332 333 332 335 334 264 323 333 331 347 25 24 37 19 39 51 35 82 104 205 194 192 224 186 165 174 146 130 131 16 70 99 129
208 219 263 301 313 317 323 328 328 333 331 332 332 329 327 318 357 256 353 354 356 14 37 18 337 54 55 29 20 159 166 201 213 199 204 185 226 204 136 229 201 191 183 171 154
217 224 237 270 298 311 317 322 328 332 332 330 330 329 324 238 192 288 34 15 348 337 351 53 42 53 75 80 358 98 249 174 181 195 158 181 142 216 189 225 310 197 159 157 167
223 232 243 256 275 294 308 316 324 326 327 330 331 330 341 15 249 115 86 17 342 5 59 73 74 105 142 175 46 141 267 267 157 216 248 129 226 219 233 177 73 136 150 170 176
226 237 243 249 264 281 297 308 317 324 325 330 333 325 1 250 109 142 124 54 44 58 39 47 140 171 117 137 152 166 216 283 250 229 252 194 246 137 244 147 143 159 184 188 187
229 231 244 248 260 270 287 299 311 322 323 327 336 334 20 238 351 156 134 98 41 91 117 60 108 80 114 88 312 83 320 327 249 223 230 165 285 234 168 163 178 199 204 205 211
221 227 235 247 253 266 274 291 309 315 315 320 327 332 246 13 156 148 119 58 66 43 86 17 65 101 82 109 20 36 52 347 293 144 270 139 271 266 170 161 205 210 215 215 218
220 220 228 236 247 254 270 290 303 303 297 309 337 80 268 63 162 203 144 143 85 41 33 61 61 88 41 87 8 7 238 212 310 200 129 168 264 271 151 192 220 216 217 222 226
213 217 222 225 233 245 263 279 296 318 320 243 269 2 233 223 177 148 129 124 117 103 52 58 52 80 44 114 224 208 223 243 242 212 172 220 264 263 202 204 231 232 226 224 222
209 214 214 218 217 221 301 43 25 304 259 194 194 231 130 59 45 99 150 98 90 78 158 62 120 196 210 199 160 151 197 241 247 245 177 233 241 258 225 219 235 236 225 225 222
210 210 214 211 201 182 132 207 225 201 290 227 245 281 229 186 105 214 135 130 148 167 116 63 225 222 155 173 196 209 240 260 290 234 191 267 258 249 217 225 217 227 227 227 213
212 209 204 206 184 165 188 211 320 356 273 275 194 188 196 147 209 192 154 143 152 144 190 177 207 157 159 159 169 223 206 231 227 323 248 300 263 230 246 233 243 241 236 226 210
228 206 205 186 184 141 203 216 205 163 285 246 218 243 149 141 252 186 181 146 177 193 168 239 251 139 163 192 162 235 208 201 241 352 257 12 292 199 227 240 237 249 240 231 193
56 341 202 183 151 189 181 155 146 62 254 215 159 55 159 170 138 229 222 94 167 173 144 235 169 169 178 196 162 225 137 177 173 201 331 206 285 153 183 249 248 249 246 212 194
29 51 59 198 215 215 141 130 111 162 226 198 140 170 138 149 99 111 137 47 150 139 256 231 172 161 193 133 161 147 87 59 58 56 268 189 182 287 169 212 251 262 244 211 198
3 356 80 328 217 147 151 147 202 198 179 206 182 166 157 156 152 155 165 181 170 149 217 155 211 182 150 99 59 118 99 317 323 351 249 350 222 254 308 281 235 256 261 228 183
334 324 136 190 313 144 167 245 196 187 198 82 110 105 180 149 194 149 137 180 244 129 130 173 270 170 193 182 181 189 158 160 221 214 271 327 242 248 233 265 272 247 261 197 172
328 303 210 187 238 224 220 212 215 173 216 134 66 113 223 208 139 132 189 200 202 183 181 162 263 163 161 115 148 194 205 170 86 79 354 224 290 291 268 275 266 258 163 222 186
354 295 248 142 161 258 233 225 218 213 177 228 178 173 181 188 158 178 171 195 202 194 191 197 255 50 158 99 24 156 163 93 27 225 258 275 266 238 276 268 304 253 232 211 174
349 309 275 131 146 246 249 206 228 226 156 208 237 163 183 179 178 196 203 243 201 191 196 143 150 331 123 204 171 144 177 179 138 154 192 300 257 215 231 265 286 292 236 205 187
179 242 296 141 194 184 198 200 189 211 189 239 163 240 194 178 193 200 203 239 158 144 165 198 120 171 205 270 209 91 190 168 161 223 241 152 263 180 228 270 287 292 275 191 187
243 247 316 176 225 199 201 220 248 223 197 176 234 182 259 204 200 212 198 214 158 156 162 167 180 163 227 41 328 210 205 201 117 88 215 172 256 22 290 289 270 279 251 174 165
304 279 280 207 279 229 205 231 223 211 262 246 239 190 181 243 209 201 216 203 189 191 162 129 166 194 223 180 141 185 196 198 198 213 154 231 265 255 314 300 295 269 228 181 177
197 240 241 223 248 251 268 244 222 230 213 216 250 235 213 228 233 232 231 147 164 232 168 171 207 202 231 155 148 221 203 204 207 217 203 249 234 255 240 240 246 212 196 183 203
184 182 263 274 309 244 234 241 249 240 227 216 230 237 244 243 219 233 214 192 201 189 201 187 230 170 249 222 192 223 227 218 215 223 229 246 251 255 199 242 242 241 211 204 215
176 301 121 237 225 227 224 242 255 236 229 278 249 235 237 241 248 256 256 256 196 203 197 193 184 190 249 218 207 228 235 210 223 227 220 232 239 262 228 224 237 241 214 213 223